Flag for Germany Weather past 2 weeks in Wilhelmshaven, Lower Saxony, Germany

Now
52 °F

Light rain. Passing clouds.


Feels Like: 46 °F
Forecast: 42 / 45 °F
Wind: 22 mph from Southwest

Location: Wittmundhaven

Current Time: Dec 19, 2014 at 5:00:11 AM

Latest Report: Dec 19, 2014 at 4:20 AM


Visibility: 4 mi

Pressure: 29.62 "Hg

Humidity: 94%

Dew point: 50 °F

Location of WilhelmshavenLocation

Historic Weather in Wilhelmshaven — Graph

°F

Wilhelmshaven temperature yesterday

Maximum temperature yesterday: 54 °F (at 6:20 PM)
Minimum temperature yesterday: 46 °F (at 12:20 AM)
Average temperature yesterday: 50 °F

Past Weeks' High & Low Weather Summary

 TemperatureHumidityPressure
High54 °F (Dec 18, 6:20 PM)100% (Dec 4, 8:20 PM)30.30 "Hg (Dec 4, 8:20 PM)
Low30 °F (Dec 4, 3:20 AM)71% (Dec 10, 2:20 PM)29.15 "Hg (Dec 12, 11:20 AM)
Average39 °F90%29.83 "Hg
* Reported Dec 4 3:20 AM — Dec 19 3:20 AM, Wilhelmshaven, Weather by CustomWeather, © 2014

Note: Actual official high and low records may vary slightly from our data, if they occured in-between our weather recording intervals... More about our weather records

Advertising

Wilhelmshaven weather history for previous 24 hours

 ConditionsComfort  
Time TempWeatherWind HumidityBarometerVisibility
3:20 AM
Dec 19
54 °FLight rain. Passing clouds.22 mph88%29.65 "HgN/A
2:20 AM54 °FPassing clouds.22 mph88%29.65 "HgN/A
1:20 AM54 °FPassing clouds.22 mph88%29.65 "HgN/A
12:20 AM52 °FPassing clouds.22 mph94%29.65 "HgN/A
11:20 PM
Dec 18
52 °FDrizzle. Fog.22 mph94%29.65 "Hg2 mi
10:20 PM52 °FDrizzle. Fog.18 mph94%29.62 "Hg2 mi
9:20 PM52 °FPassing clouds.22 mph94%29.62 "Hg4 mi
8:20 PM54 °FPassing clouds.21 mph88%29.62 "HgN/A
7:20 PM54 °FPassing clouds.22 mph88%29.62 "Hg4 mi
6:20 PM54 °FPassing clouds.24 mph88%29.59 "Hg4 mi
5:20 PM52 °FDrizzle. Fog.21 mph94%29.59 "Hg1 mi
4:20 PM52 °FDrizzle. Fog.20 mph94%29.59 "Hg1 mi
3:20 PM52 °FDrizzle. Fog.17 mph94%29.62 "Hg1 mi
2:20 PM52 °FDrizzle. Fog.17 mph94%29.62 "Hg1 mi
1:20 PM50 °FDrizzle. Fog.14 mph100%29.65 "Hg1 mi
12:20 PM50 °FDrizzle. Fog.14 mph100%29.65 "Hg2 mi
11:20 AM50 °FDrizzle. Fog.16 mph94%29.68 "Hg2 mi
10:20 AM50 °FDrizzle. Fog.15 mph94%29.68 "Hg2 mi
9:20 AM50 °FDrizzle. Fog.14 mph94%29.68 "Hg1 mi
8:20 AM48 °FDrizzle. Fog.10 mph100%29.68 "Hg1 mi
7:20 AM50 °FFog.15 mph94%29.68 "Hg2 mi
6:20 AM48 °FFog.14 mph100%29.68 "Hg2 mi
5:20 AM48 °FDrizzle. Fog.12 mph100%29.68 "Hg2 mi
Weather by CustomWeather, © 2014

See weather overviewHow to use our weather pages